• In Deutschland
  • Länderverzeichnis
  • Für 7 Tage
  • Wassertemperatur
  • Satellitenkarten
  • Wetterkarte
  • Widgets
  • user-avatar
    Anmelden

    Stündliche Wetter Bie

    Heute, 25 Februar, Sonntag

    Zeit Temperatur Niederschläge Wind Luftdruck Luftfeuchtigkeit
    00:00 +19°C° 0 mm 1 m/S 647 mmHg 93%
    01:00 +19°C° 0 mm 1 m/S 647 mmHg 94%
    02:00 +17°C° 0,1 mm 0 m/S 647 mmHg 93%
    03:00 +17°C° 0,1 mm 0 m/S 647 mmHg 93%
    04:00 +17°C° 0,1 mm 0 m/S 647 mmHg 92%
    05:00 +17°C° 0,1 mm 0 m/S 647 mmHg 91%
    06:00 +17°C° 0,1 mm 0 m/S 647 mmHg 89%
    07:00 +18°C° 0 mm 0 m/S 648 mmHg 86%
    08:00 +22°C° 0,1 mm 1 m/S 649 mmHg 82%
    09:00 +23°C° 0,1 mm 1 m/S 649 mmHg 78%
    10:00 +24°C° 0,1 mm 1 m/S 649 mmHg 74%
    11:00 +24°C° 0,4 mm 1 m/S 649 mmHg 74%
    12:00 +25°C° 0,4 mm 1 m/S 648 mmHg 73%
    13:00 +25°C° 0,4 mm 1 m/S 648 mmHg 73%
    14:00 +25°C° 1,2 mm 1 m/S 648 mmHg 76%
    15:00 +25°C° 1,2 mm 1 m/S 647 mmHg 79%
    16:00 +25°C° 1,2 mm 1 m/S 647 mmHg 81%
    17:00 +23°C° 1 mm 1 m/S 647 mmHg 84%
    18:00 +22°C° 1 mm 1 m/S 647 mmHg 87%
    19:00 +20°C° 1 mm 1 m/S 647 mmHg 90%
    20:00 +20°C° 0,2 mm 1 m/S 647 mmHg 91%
    21:00 +19°C° 0,2 mm 1 m/S 647 mmHg 91%
    22:00 +19°C° 0,2 mm 1 m/S 648 mmHg 92%
    23:00 +19°C° 0 mm 1 m/S 647 mmHg 92%

    Morgen, 26 Februar, Montag

    Zeit Temperatur Niederschläge Wind Luftdruck Luftfeuchtigkeit
    00:00 +19°C° 0 mm 1 m/S 647 mmHg 93%
    01:00 +19°C° 0 mm 1 m/S 647 mmHg 93%
    02:00 +18°C° 0,1 mm 1 m/S 647 mmHg 94%
    03:00 +18°C° 0,1 mm 1 m/S 647 mmHg 95%
    04:00 +16°C° 0,1 mm 0 m/S 647 mmHg 96%
    05:00 +16°C° 0,1 mm 0 m/S 647 mmHg 95%
    06:00 +16°C° 0,1 mm 0 m/S 648 mmHg 95%
    07:00 +17°C° 0,1 mm 0 m/S 648 mmHg 94%
    08:00 +20°C° 0,2 mm 1 m/S 648 mmHg 90%
    09:00 +21°C° 0,2 mm 1 m/S 649 mmHg 86%
    10:00 +22°C° 0,2 mm 1 m/S 649 mmHg 82%
    11:00 +24°C° 0 mm 2 m/S 649 mmHg 73%
    12:00 +25°C° 0 mm 2 m/S 648 mmHg 64%
    13:00 +27°C° 0 mm 2 m/S 648 mmHg 56%
    14:00 +27°C° 0 mm 2 m/S 648 mmHg 55%
    15:00 +28°C° 0 mm 2 m/S 647 mmHg 55%
    16:00 +28°C° 0 mm 2 m/S 647 mmHg 54%
    17:00 +26°C° 0 mm 2 m/S 647 mmHg 61%
    18:00 +24°C° 0 mm 2 m/S 647 mmHg 69%
    19:00 +22°C° 0 mm 1 m/S 647 mmHg 76%
    20:00 +21°C° 0 mm 1 m/S 647 mmHg 79%
    21:00 +20°C° 0 mm 1 m/S 647 mmHg 81%
    22:00 +19°C° 0 mm 1 m/S 647 mmHg 84%
    23:00 +19°C° 0 mm 1 m/S 647 mmHg 85%

    übermorgen, 27 Februar, Dienstag

    Zeit Temperatur Niederschläge Wind Luftdruck Luftfeuchtigkeit
    00:00 +19°C° 0 mm 1 m/S 647 mmHg 87%
    01:00 +18°C° 0 mm 1 m/S 646 mmHg 88%
    02:00 +18°C° 0 mm 1 m/S 646 mmHg 89%
    03:00 +15°C° 0 mm 0 m/S 646 mmHg 89%
    04:00 +15°C° 0 mm 0 m/S 646 mmHg 90%
    05:00 +18°C° 0 mm 1 m/S 646 mmHg 88%
    06:00 +18°C° 0 mm 1 m/S 647 mmHg 87%
    07:00 +19°C° 0 mm 1 m/S 647 mmHg 85%
    08:00 +21°C° 0 mm 1 m/S 648 mmHg 77%
    09:00 +24°C° 0 mm 2 m/S 649 mmHg 69%
    10:00 +26°C° 0 mm 2 m/S 649 mmHg 62%
    11:00 +28°C° 0 mm 2 m/S 649 mmHg 56%
    12:00 +29°C° 0 mm 2 m/S 649 mmHg 51%
    13:00 +30°C° 0 mm 2 m/S 648 mmHg 46%
    14:00 +30°C° 0 mm 2 m/S 648 mmHg 48%
    15:00 +30°C° 0 mm 2 m/S 647 mmHg 50%
    16:00 +29°C° 0 mm 1 m/S 646 mmHg 52%
    17:00 +27°C° 0 mm 1 m/S 646 mmHg 58%
    18:00 +25°C° 0 mm 1 m/S 646 mmHg 64%
    19:00 +23°C° 0 mm 1 m/S 647 mmHg 69%
    20:00 +23°C° 0,1 mm 1 m/S 647 mmHg 72%
    21:00 +22°C° 0,1 mm 1 m/S 647 mmHg 75%
    22:00 +21°C° 0,1 mm 1 m/S 648 mmHg 78%
    23:00 +20°C° 0,1 mm 1 m/S 648 mmHg 80%

    28 Februar, Mittwoch

    Zeit Temperatur Niederschläge Wind Luftdruck Luftfeuchtigkeit
    00:00 +20°C° 0,1 mm 1 m/S 647 mmHg 83%
    01:00 +19°C° 0,1 mm 1 m/S 647 mmHg 85%
    02:00 +19°C° 0 mm 1 m/S 647 mmHg 87%
    03:00 +16°C° 0 mm 0 m/S 646 mmHg 88%
    04:00 +16°C° 0 mm 0 m/S 646 mmHg 89%
    05:00 +16°C° 0 mm 0 m/S 647 mmHg 88%
    06:00 +17°C° 0 mm 0 m/S 647 mmHg 87%
    07:00 +17°C° 0 mm 0 m/S 648 mmHg 86%
    08:00 +21°C° 0,1 mm 1 m/S 649 mmHg 79%
    09:00 +23°C° 0,1 mm 1 m/S 649 mmHg 72%
    10:00 +25°C° 0,1 mm 2 m/S 650 mmHg 65%
    11:00 +27°C° 0,2 mm 2 m/S 649 mmHg 61%
    12:00 +28°C° 0,2 mm 2 m/S 649 mmHg 57%
    13:00 +29°C° 0,2 mm 2 m/S 648 mmHg 53%
    14:00 +28°C° 0,5 mm 2 m/S 648 mmHg 58%
    15:00 +27°C° 0,5 mm 2 m/S 647 mmHg 63%
    16:00 +27°C° 0,5 mm 2 m/S 647 mmHg 68%
    17:00 +25°C° 0,7 mm 2 m/S 647 mmHg 75%
    18:00 +23°C° 0,7 mm 2 m/S 647 mmHg 81%
    19:00 +20°C° 0,7 mm 2 m/S 647 mmHg 88%
    20:00 +20°C° 1,1 mm 2 m/S 647 mmHg 89%
    21:00 +20°C° 1,1 mm 1 m/S 648 mmHg 91%
    22:00 +20°C° 1,1 mm 1 m/S 648 mmHg 92%
    23:00 +19°C° 0,2 mm 1 m/S 648 mmHg 93%

    1 März, Donnerstag

    Zeit Temperatur Niederschläge Wind Luftdruck Luftfeuchtigkeit
    00:00 +19°C° 0,2 mm 1 m/S 647 mmHg 94%
    01:00 +18°C° 0,2 mm 1 m/S 647 mmHg 95%
    02:00 +18°C° 0 mm 1 m/S 647 mmHg 96%
    03:00 +18°C° 0 mm 1 m/S 646 mmHg 96%
    04:00 +16°C° 0 mm 1 m/S 646 mmHg 97%
    05:00 +18°C° 0 mm 1 m/S 647 mmHg 96%
    06:00 +18°C° 0 mm 1 m/S 647 mmHg 95%
    07:00 +19°C° 0 mm 1 m/S 648 mmHg 94%
    08:00 +21°C° 0 mm 1 m/S 649 mmHg 83%
    09:00 +23°C° 0 mm 2 m/S 649 mmHg 72%
    10:00 +26°C° 0 mm 2 m/S 650 mmHg 61%
    11:00 +27°C° 0 mm 2 m/S 649 mmHg 56%
    12:00 +28°C° 0 mm 2 m/S 649 mmHg 51%
    13:00 +30°C° 0 mm 2 m/S 648 mmHg 46%
    14:00 +29°C° 0,1 mm 2 m/S 648 mmHg 48%
    15:00 +29°C° 0,1 mm 2 m/S 647 mmHg 50%
    16:00 +29°C° 0,1 mm 2 m/S 647 mmHg 53%
    17:00 +27°C° 0,2 mm 2 m/S 646 mmHg 62%
    18:00 +24°C° 0,2 mm 2 m/S 646 mmHg 70%
    19:00 +21°C° 0,2 mm 2 m/S 646 mmHg 79%
    20:00 +20°C° 0 mm 2 m/S 647 mmHg 81%
    21:00 +19°C° 0 mm 2 m/S 647 mmHg 84%
    22:00 +19°C° 0 mm 1 m/S 647 mmHg 86%
    23:00 +19°C° 0 mm 1 m/S 647 mmHg 87%

    2 März, Freitag

    Zeit Temperatur Niederschläge Wind Luftdruck Luftfeuchtigkeit
    00:00 +19°C° 0 mm 1 m/S 646 mmHg 89%
    01:00 +18°C° 0 mm 1 m/S 646 mmHg 90%
    02:00 +18°C° 0 mm 1 m/S 646 mmHg 90%
    03:00 +18°C° 0 mm 1 m/S 645 mmHg 91%
    04:00 +16°C° 0 mm 1 m/S 645 mmHg 91%
    05:00 +18°C° 0 mm 1 m/S 646 mmHg 89%
    06:00 +18°C° 0 mm 1 m/S 646 mmHg 88%
    07:00 +19°C° 0 mm 1 m/S 647 mmHg 86%
    08:00 +21°C° 0 mm 1 m/S 647 mmHg 76%
    09:00 +24°C° 0 mm 2 m/S 648 mmHg 66%
    10:00 +26°C° 0 mm 2 m/S 648 mmHg 57%
    11:00 +27°C° 0 mm 3 m/S 648 mmHg 53%
    12:00 +28°C° 0 mm 3 m/S 648 mmHg 50%
    13:00 +30°C° 0 mm 3 m/S 647 mmHg 46%
    14:00 +29°C° 0 mm 3 m/S 647 mmHg 49%
    15:00 +29°C° 0 mm 2 m/S 646 mmHg 52%
    16:00 +29°C° 0 mm 2 m/S 646 mmHg 55%
    17:00 +27°C° 0 mm 2 m/S 646 mmHg 61%
    18:00 +25°C° 0 mm 2 m/S 646 mmHg 68%
    19:00 +23°C° 0 mm 1 m/S 646 mmHg 74%
    20:00 +22°C° 0 mm 1 m/S 646 mmHg 75%
    21:00 +21°C° 0 mm 1 m/S 646 mmHg 76%
    22:00 +21°C° 0 mm 1 m/S 647 mmHg 76%
    23:00 +20°C° 0 mm 1 m/S 646 mmHg 79%
    Mehr zeigen